Location: Pedholt
(56.0260°N, 10.2097°E)
Time: 20:42:36
(UTC+00:00)

Transit 2A Rocket - Pass Details

Date: 29 July 2021
Orbit: 586 x 917 km, 66.7° (Epoch: 27 September)

Event Time Altitude Azimuth Distance (km) Brightness Sun altitude
Rises 21:09:52 0° 314° (NW) 3,148 10.0 -10.1°
Reaches altitude 10° 21:12:10 10° 318° (NW) 2,275 9.0 -10.3°
Maximum altitude 21:17:23 63° 40° (NE) 893 5.4 -10.7°
Enters shadow 21:23:00 10° 121° (ESE) 2,453 7.1 -11.1°
Drops below altitude 10° 21:23:04 10° 121° (ESE) 2,481 - -11.1°
Sets 21:25:40 0° 125° (SE) 3,455 - -11.3°
